Year,Month,Day,Hour,Minute,Value (Times are PST for windgust in km/hr)
2012,03,11,00,02,1.60
2012,03,11,00,04,1.60
2012,03,11,00,05,3.20
2012,03,11,00,06,3.20
2012,03,11,00,07,1.60
2012,03,11,00,08,1.60
2012,03,11,00,09,1.60
2012,03,11,00,11,1.60
2012,03,11,00,19,1.60
2012,03,11,00,24,3.20
2012,03,11,00,25,4.80
2012,03,11,00,26,4.80
2012,03,11,00,27,1.60
2012,03,11,00,31,1.60
2012,03,11,00,32,4.80
2012,03,11,00,33,4.80
2012,03,11,00,34,1.60
2012,03,11,00,35,3.20
2012,03,11,00,42,3.20
2012,03,11,00,43,4.80
2012,03,11,00,44,3.20
2012,03,11,00,45,8.10
2012,03,11,00,46,3.20
2012,03,11,00,48,4.80
2012,03,11,00,49,4.80
2012,03,11,00,50,4.80
2012,03,11,00,51,9.60
2012,03,11,00,52,4.80
2012,03,11,00,53,1.60
2012,03,11,00,54,1.60
2012,03,11,00,55,1.60
2012,03,11,00,56,4.80
2012,03,11,00,57,4.80
2012,03,11,00,58,4.80
2012,03,11,00,59,1.60
2012,03,11,01,00,3.20
2012,03,11,01,01,6.40
2012,03,11,01,02,6.40
2012,03,11,01,03,1.60
2012,03,11,01,04,1.60
2012,03,11,01,05,4.80
2012,03,11,01,06,3.20
2012,03,11,01,07,1.60
2012,03,11,01,08,4.80
2012,03,11,01,09,6.40
2012,03,11,01,10,6.40
2012,03,11,01,11,3.20
2012,03,11,01,12,4.80
2012,03,11,01,13,4.80
2012,03,11,01,14,6.40
2012,03,11,01,15,4.80
2012,03,11,01,16,4.80
2012,03,11,01,17,4.80
2012,03,11,01,18,9.60
2012,03,11,01,19,8.10
2012,03,11,01,20,4.80
2012,03,11,01,21,9.60
2012,03,11,01,22,8.10
2012,03,11,01,23,6.40
2012,03,11,01,24,6.40
2012,03,11,01,25,6.40
2012,03,11,01,26,8.10
2012,03,11,01,27,9.60
2012,03,11,01,28,9.60
2012,03,11,01,29,6.40
2012,03,11,01,30,6.40
2012,03,11,01,31,6.40
2012,03,11,01,32,4.80
2012,03,11,01,33,4.80
2012,03,11,01,34,6.40
2012,03,11,01,35,6.40
2012,03,11,01,36,6.40
2012,03,11,01,37,8.10
2012,03,11,01,38,4.80
2012,03,11,01,39,6.40
2012,03,11,01,40,4.80
2012,03,11,01,41,6.40
2012,03,11,01,42,6.40
2012,03,11,01,43,4.80
2012,03,11,01,44,4.80
2012,03,11,01,45,6.40
2012,03,11,01,46,6.40
2012,03,11,01,47,9.60
2012,03,11,01,48,8.10
2012,03,11,01,49,6.40
2012,03,11,01,50,6.40
2012,03,11,01,51,1.60
2012,03,11,01,52,4.80
2012,03,11,01,53,4.80
2012,03,11,01,54,3.20
2012,03,11,01,55,4.80
2012,03,11,01,58,1.60
2012,03,11,03,01,3.20
2012,03,11,03,02,4.80
2012,03,11,03,03,6.40
2012,03,11,03,04,1.60
2012,03,11,03,07,1.60
2012,03,11,03,10,3.20
2012,03,11,03,11,3.20
2012,03,11,03,12,1.60
2012,03,11,03,13,3.20
2012,03,11,03,15,6.40
2012,03,11,03,16,6.40
2012,03,11,03,17,4.80
2012,03,11,03,18,4.80
2012,03,11,03,19,6.40
2012,03,11,03,20,6.40
2012,03,11,03,21,6.40
2012,03,11,03,22,4.80
2012,03,11,03,23,1.60
2012,03,11,03,24,8.10
2012,03,11,03,25,8.10
2012,03,11,03,26,6.40
2012,03,11,03,27,3.20
2012,03,11,03,28,3.20
2012,03,11,03,29,4.80
2012,03,11,03,30,4.80
2012,03,11,03,31,4.80
2012,03,11,03,32,3.20
2012,03,11,03,33,3.20
2012,03,11,03,34,4.80
2012,03,11,03,35,4.80
2012,03,11,03,36,3.20
2012,03,11,03,37,1.60
2012,03,11,03,38,6.40
2012,03,11,03,39,1.60
2012,03,11,03,41,1.60
2012,03,11,03,43,1.60
2012,03,11,03,45,1.60
2012,03,11,03,46,4.80
2012,03,11,03,47,4.80
2012,03,11,03,48,4.80
2012,03,11,03,49,3.20
2012,03,11,03,50,4.80
2012,03,11,03,51,4.80
2012,03,11,03,52,4.80
2012,03,11,03,53,1.60
2012,03,11,03,57,4.80
2012,03,11,03,58,4.80
2012,03,11,03,59,3.20
2012,03,11,04,00,3.20
2012,03,11,04,01,1.60
2012,03,11,04,02,3.20
2012,03,11,04,03,1.60
2012,03,11,04,04,6.40
2012,03,11,04,05,4.80
2012,03,11,04,06,6.40
2012,03,11,04,07,6.40
2012,03,11,04,10,8.10
2012,03,11,04,11,4.80
2012,03,11,04,12,6.40
2012,03,11,04,13,4.80
2012,03,11,04,14,4.80
2012,03,11,04,15,8.10
2012,03,11,04,16,16.10
2012,03,11,04,17,20.90
2012,03,11,04,18,14.50
2012,03,11,04,19,16.10
2012,03,11,04,20,24.20
2012,03,11,04,21,19.30
2012,03,11,04,22,16.10
2012,03,11,04,23,24.20
2012,03,11,04,24,17.70
2012,03,11,04,25,20.90
2012,03,11,04,26,24.20
2012,03,11,04,27,17.70
2012,03,11,04,28,16.10
2012,03,11,04,29,17.70
2012,03,11,04,30,17.70
2012,03,11,04,31,14.50
2012,03,11,04,32,11.30
2012,03,11,04,33,9.60
2012,03,11,04,34,16.10
2012,03,11,04,35,16.10
2012,03,11,04,36,11.30
2012,03,11,04,37,20.90
2012,03,11,04,38,17.70
2012,03,11,04,39,11.30
2012,03,11,04,40,11.30
2012,03,11,04,41,17.70
2012,03,11,04,42,14.50
2012,03,11,04,43,14.50
2012,03,11,04,44,16.10
2012,03,11,04,45,22.50
2012,03,11,04,46,11.30
2012,03,11,04,47,12.90
2012,03,11,04,48,16.10
2012,03,11,04,49,14.50
2012,03,11,04,50,16.10
2012,03,11,04,51,12.90
2012,03,11,04,52,9.60
2012,03,11,04,53,16.10
2012,03,11,04,54,12.90
2012,03,11,04,55,14.50
2012,03,11,04,56,8.10
2012,03,11,04,57,19.30
2012,03,11,04,58,11.30
2012,03,11,04,59,12.90
2012,03,11,05,00,16.10
2012,03,11,05,01,11.30
2012,03,11,05,02,9.60
2012,03,11,05,03,8.10
2012,03,11,05,04,6.40
2012,03,11,05,05,8.10
2012,03,11,05,06,9.60
2012,03,11,05,07,9.60
2012,03,11,05,08,4.80
2012,03,11,05,09,8.10
2012,03,11,05,10,6.40
2012,03,11,05,11,9.60
2012,03,11,05,12,9.60
2012,03,11,05,13,6.40
2012,03,11,05,14,9.60
2012,03,11,05,15,6.40
2012,03,11,05,16,4.80
2012,03,11,05,17,6.40
2012,03,11,05,18,14.50
2012,03,11,05,19,6.40
2012,03,11,05,20,19.30
2012,03,11,05,21,17.70
2012,03,11,05,22,20.90
2012,03,11,05,23,17.70
2012,03,11,05,24,9.60
2012,03,11,05,25,9.60
2012,03,11,05,26,17.70
2012,03,11,05,27,16.10
2012,03,11,05,28,19.30
2012,03,11,05,29,19.30
2012,03,11,05,30,17.70
2012,03,11,05,31,14.50
2012,03,11,05,32,12.90
2012,03,11,05,33,11.30
2012,03,11,05,34,14.50
2012,03,11,05,35,12.90
2012,03,11,05,36,9.60
2012,03,11,05,37,16.10
2012,03,11,05,38,16.10
2012,03,11,05,39,12.90
2012,03,11,05,40,19.30
2012,03,11,05,41,19.30
2012,03,11,05,42,17.70
2012,03,11,05,43,11.30
2012,03,11,05,44,14.50
2012,03,11,05,45,12.90
2012,03,11,05,46,16.10
2012,03,11,05,47,16.10
2012,03,11,05,48,19.30
2012,03,11,05,49,17.70
2012,03,11,05,50,17.70
2012,03,11,05,51,22.50
2012,03,11,05,52,22.50
2012,03,11,05,53,19.30
2012,03,11,05,54,16.10
2012,03,11,05,55,17.70
2012,03,11,05,56,11.30
2012,03,11,05,57,9.60
2012,03,11,05,58,14.50
2012,03,11,05,59,11.30
2012,03,11,06,00,14.50
2012,03,11,06,01,17.70
2012,03,11,06,02,20.90
2012,03,11,06,03,14.50
2012,03,11,06,04,19.30
2012,03,11,06,05,20.90
2012,03,11,06,06,19.30
2012,03,11,06,07,16.10
2012,03,11,06,08,16.10
2012,03,11,06,09,25.70
2012,03,11,06,10,16.10
2012,03,11,06,11,19.30
2012,03,11,06,12,9.60
2012,03,11,06,13,16.10
2012,03,11,06,14,11.30
2012,03,11,06,15,14.50
2012,03,11,06,16,12.90
2012,03,11,06,17,14.50
2012,03,11,06,18,17.70
2012,03,11,06,19,14.50
2012,03,11,06,20,8.10
2012,03,11,06,21,11.30
2012,03,11,06,22,11.30
2012,03,11,06,23,16.10
2012,03,11,06,24,16.10
2012,03,11,06,25,17.70
2012,03,11,06,26,17.70
2012,03,11,06,27,16.10
2012,03,11,06,28,16.10
2012,03,11,06,29,14.50
2012,03,11,06,30,22.50
2012,03,11,06,31,19.30
2012,03,11,06,32,22.50
2012,03,11,06,33,20.90
2012,03,11,06,34,25.70
2012,03,11,06,35,20.90
2012,03,11,06,36,14.50
2012,03,11,06,37,16.10
2012,03,11,06,38,14.50
2012,03,11,06,39,16.10
2012,03,11,06,40,16.10
2012,03,11,06,41,14.50
2012,03,11,06,42,14.50
2012,03,11,06,43,9.60
2012,03,11,06,44,9.60
2012,03,11,06,45,16.10
2012,03,11,06,46,11.30
2012,03,11,06,47,11.30
2012,03,11,06,48,11.30
2012,03,11,06,49,9.60
2012,03,11,06,50,8.10
2012,03,11,06,51,9.60
2012,03,11,06,52,6.40
2012,03,11,06,53,9.60
2012,03,11,06,54,11.30
2012,03,11,06,55,8.10
2012,03,11,06,56,8.10
2012,03,11,06,57,8.10
2012,03,11,06,58,9.60
2012,03,11,06,59,8.10
2012,03,11,07,00,9.60
2012,03,11,07,01,11.30
2012,03,11,07,02,11.30
2012,03,11,07,03,12.90
2012,03,11,07,04,16.10
2012,03,11,07,05,14.50
2012,03,11,07,06,11.30
2012,03,11,07,07,14.50
2012,03,11,07,08,11.30
2012,03,11,07,09,9.60
2012,03,11,07,10,17.70
2012,03,11,07,11,11.30
2012,03,11,07,12,16.10
2012,03,11,07,13,16.10
2012,03,11,07,14,11.30
2012,03,11,07,15,16.10
2012,03,11,07,16,9.60
2012,03,11,07,17,11.30
2012,03,11,07,18,8.10
2012,03,11,07,19,9.60
2012,03,11,07,20,11.30
2012,03,11,07,21,17.70
2012,03,11,07,22,9.60
2012,03,11,07,23,19.30
2012,03,11,07,24,22.50
2012,03,11,07,25,14.50
2012,03,11,07,26,11.30
2012,03,11,07,27,11.30
2012,03,11,07,28,12.90
2012,03,11,07,29,8.10
2012,03,11,07,30,16.10
2012,03,11,07,31,16.10
2012,03,11,07,32,11.30
2012,03,11,07,33,11.30
2012,03,11,07,34,16.10
2012,03,11,07,35,14.50
2012,03,11,07,36,14.50
2012,03,11,07,37,11.30
2012,03,11,07,38,19.30
2012,03,11,07,39,16.10
2012,03,11,07,40,16.10
2012,03,11,07,41,14.50
2012,03,11,07,42,14.50
2012,03,11,07,43,16.10
2012,03,11,07,44,20.90
2012,03,11,07,45,17.70
2012,03,11,07,46,16.10
2012,03,11,07,47,14.50
2012,03,11,07,48,14.50
2012,03,11,07,49,14.50
2012,03,11,07,50,14.50
2012,03,11,07,51,17.70
2012,03,11,07,52,9.60
2012,03,11,07,53,9.60
2012,03,11,07,54,8.10
2012,03,11,07,55,6.40
2012,03,11,07,56,9.60
2012,03,11,07,57,6.40
2012,03,11,07,58,6.40
2012,03,11,07,59,14.50
2012,03,11,08,00,11.30
2012,03,11,08,01,8.10
2012,03,11,08,02,4.80
2012,03,11,08,03,4.80
2012,03,11,08,04,6.40
2012,03,11,08,05,9.60
2012,03,11,08,06,9.60
2012,03,11,08,07,12.90
2012,03,11,08,08,9.60
2012,03,11,08,09,17.70
2012,03,11,08,10,9.60
2012,03,11,08,11,8.10
2012,03,11,08,12,14.50
2012,03,11,08,13,14.50
2012,03,11,08,14,9.60
2012,03,11,08,15,9.60
2012,03,11,08,16,8.10
2012,03,11,08,17,9.60
2012,03,11,08,18,8.10
2012,03,11,08,19,8.10
2012,03,11,08,20,14.50
2012,03,11,08,21,14.50
2012,03,11,08,22,17.70
2012,03,11,08,23,17.70
2012,03,11,08,24,20.90
2012,03,11,08,25,16.10
2012,03,11,08,26,20.90
2012,03,11,08,27,20.90
2012,03,11,08,28,20.90
2012,03,11,08,29,16.10
2012,03,11,08,30,14.50
2012,03,11,08,31,27.40
2012,03,11,08,32,24.20
2012,03,11,08,33,24.20
2012,03,11,08,34,29.00
2012,03,11,08,35,20.90
2012,03,11,08,36,19.30
2012,03,11,08,37,20.90
2012,03,11,08,38,22.50
2012,03,11,08,39,24.20
2012,03,11,08,40,27.40
2012,03,11,08,41,22.50
2012,03,11,08,42,17.70
2012,03,11,08,43,24.20
2012,03,11,08,44,19.30
2012,03,11,08,45,27.40
2012,03,11,08,46,22.50
2012,03,11,08,47,29.00
2012,03,11,08,48,22.50
2012,03,11,08,49,12.90
2012,03,11,08,50,19.30
2012,03,11,08,51,29.00
2012,03,11,08,52,27.40
2012,03,11,08,53,19.30
2012,03,11,08,54,22.50
2012,03,11,08,55,19.30
2012,03,11,08,56,30.60
2012,03,11,08,57,22.50
2012,03,11,08,58,22.50
2012,03,11,08,59,30.60
2012,03,11,09,00,27.40
2012,03,11,09,01,19.30
2012,03,11,09,02,22.50
2012,03,11,09,03,27.40
2012,03,11,09,04,27.40
2012,03,11,09,05,32.20
2012,03,11,09,06,22.50
2012,03,11,09,07,24.20
2012,03,11,09,08,22.50
2012,03,11,09,09,17.70
2012,03,11,09,10,19.30
2012,03,11,09,11,22.50
2012,03,11,09,12,30.60
2012,03,11,09,13,22.50
2012,03,11,09,14,30.60
2012,03,11,09,15,30.60
2012,03,11,09,16,27.40
2012,03,11,09,17,30.60
2012,03,11,09,18,35.40
2012,03,11,09,19,29.00
2012,03,11,09,20,27.40
2012,03,11,09,21,27.40
2012,03,11,09,22,22.50
2012,03,11,09,23,19.30
2012,03,11,09,24,27.40
2012,03,11,09,25,24.20
2012,03,11,09,26,20.90
2012,03,11,09,27,20.90
2012,03,11,09,28,24.20
2012,03,11,09,29,22.50
2012,03,11,09,30,25.70
2012,03,11,09,31,32.20
2012,03,11,09,32,20.90
2012,03,11,09,33,19.30
2012,03,11,09,34,19.30
2012,03,11,09,35,20.90
2012,03,11,09,36,25.70
2012,03,11,09,37,20.90
2012,03,11,09,38,27.40
2012,03,11,09,39,20.90
2012,03,11,09,40,11.30
2012,03,11,09,41,22.50
2012,03,11,09,42,29.00
2012,03,11,09,43,19.30
2012,03,11,09,44,14.50
2012,03,11,09,45,25.70
2012,03,11,09,46,22.50
2012,03,11,09,47,19.30
2012,03,11,09,48,22.50
2012,03,11,09,49,20.90
2012,03,11,09,50,19.30
2012,03,11,09,51,25.70
2012,03,11,09,52,27.40
2012,03,11,09,53,29.00
2012,03,11,09,54,20.90
2012,03,11,09,55,33.80
2012,03,11,09,56,32.20
2012,03,11,09,57,22.50
2012,03,11,09,58,27.40
2012,03,11,09,59,35.40
2012,03,11,10,00,37.00
2012,03,11,10,01,32.20
2012,03,11,10,02,29.00
2012,03,11,10,03,33.80
2012,03,11,10,04,29.00
2012,03,11,10,05,33.80
2012,03,11,10,06,35.40
2012,03,11,10,07,41.80
2012,03,11,10,08,30.60
2012,03,11,10,09,30.60
2012,03,11,10,10,25.70
2012,03,11,10,11,32.20
2012,03,11,10,12,40.20
2012,03,11,10,13,38.60
2012,03,11,10,14,32.20
2012,03,11,10,15,29.00
2012,03,11,10,16,27.40
2012,03,11,10,17,33.80
2012,03,11,10,18,40.20
2012,03,11,10,19,40.20
2012,03,11,10,20,29.00
2012,03,11,10,21,25.70
2012,03,11,10,22,27.40
2012,03,11,10,23,33.80
2012,03,11,10,24,33.80
2012,03,11,10,25,33.80
2012,03,11,10,26,29.00
2012,03,11,10,27,25.70
2012,03,11,10,28,27.40
2012,03,11,10,29,25.70
2012,03,11,10,30,30.60
2012,03,11,10,31,32.20
2012,03,11,10,32,22.50
2012,03,11,10,33,29.00
2012,03,11,10,34,29.00
2012,03,11,10,35,27.40
2012,03,11,10,36,19.30
2012,03,11,10,37,32.20
2012,03,11,10,38,29.00
2012,03,11,10,39,30.60
2012,03,11,10,40,20.90
2012,03,11,10,41,27.40
2012,03,11,10,42,29.00
2012,03,11,10,43,29.00
2012,03,11,10,44,25.70
2012,03,11,10,45,29.00
2012,03,11,10,46,20.90
2012,03,11,10,47,24.20
2012,03,11,10,48,32.20
2012,03,11,10,49,25.70
2012,03,11,10,50,25.70
2012,03,11,10,51,30.60
2012,03,11,10,52,30.60
2012,03,11,10,53,32.20
2012,03,11,10,54,20.90
2012,03,11,10,55,20.90
2012,03,11,10,56,22.50
2012,03,11,10,57,27.40
2012,03,11,10,58,27.40
2012,03,11,10,59,24.20
2012,03,11,11,00,25.70
2012,03,11,11,01,25.70
2012,03,11,11,02,25.70
2012,03,11,11,03,20.90
2012,03,11,11,04,20.90
2012,03,11,11,05,24.20
2012,03,11,11,06,27.40
2012,03,11,11,07,27.40
2012,03,11,11,08,29.00
2012,03,11,11,09,29.00
2012,03,11,11,10,22.50
2012,03,11,11,11,22.50
2012,03,11,11,12,32.20
2012,03,11,11,13,37.00
2012,03,11,11,14,33.80
2012,03,11,11,15,30.60
2012,03,11,11,16,29.00
2012,03,11,11,17,25.70
2012,03,11,11,18,27.40
2012,03,11,11,19,32.20
2012,03,11,11,20,32.20
2012,03,11,11,21,35.40
2012,03,11,11,22,35.40
2012,03,11,11,23,32.20
2012,03,11,11,24,30.60
2012,03,11,11,25,27.40
2012,03,11,11,26,40.20
2012,03,11,11,27,33.80
2012,03,11,11,28,30.60
2012,03,11,11,29,32.20
2012,03,11,11,30,32.20
2012,03,11,11,31,29.00
2012,03,11,11,32,41.80
2012,03,11,11,33,41.80
2012,03,11,11,34,35.40
2012,03,11,11,35,35.40
2012,03,11,11,36,35.40
2012,03,11,11,37,30.60
2012,03,11,11,38,29.00
2012,03,11,11,39,24.20
2012,03,11,11,40,20.90
2012,03,11,11,41,27.40
2012,03,11,11,42,32.20
2012,03,11,11,43,32.20
2012,03,11,11,44,29.00
2012,03,11,11,45,27.40
2012,03,11,11,46,22.50
2012,03,11,11,47,19.30
2012,03,11,11,48,35.40
2012,03,11,11,49,27.40
2012,03,11,11,50,29.00
2012,03,11,11,51,27.40
2012,03,11,11,52,29.00
2012,03,11,11,53,38.60
2012,03,11,11,54,29.00
2012,03,11,11,55,32.20
2012,03,11,11,56,25.70
2012,03,11,11,57,37.00
2012,03,11,11,58,33.80
2012,03,11,11,59,32.20
2012,03,11,12,00,32.20
2012,03,11,12,01,29.00
2012,03,11,12,02,22.50
2012,03,11,12,03,20.90
2012,03,11,12,04,25.70
2012,03,11,12,05,25.70
2012,03,11,12,06,29.00
2012,03,11,12,07,27.40
2012,03,11,12,08,27.40
2012,03,11,12,09,20.90
2012,03,11,12,10,20.90
2012,03,11,12,11,37.00
2012,03,11,12,12,37.00
2012,03,11,12,13,38.60
2012,03,11,12,14,22.50
2012,03,11,12,15,29.00
2012,03,11,12,16,30.60
2012,03,11,12,17,17.70
2012,03,11,12,18,32.20
2012,03,11,12,19,25.70
2012,03,11,12,20,27.40
2012,03,11,12,21,27.40
2012,03,11,12,22,24.20
2012,03,11,12,23,38.60
2012,03,11,12,24,24.20
2012,03,11,12,25,22.50
2012,03,11,12,26,27.40
2012,03,11,12,27,35.40
2012,03,11,12,28,33.80
2012,03,11,12,29,30.60
2012,03,11,12,30,30.60
2012,03,11,12,31,38.60
2012,03,11,12,32,30.60
2012,03,11,12,33,22.50
2012,03,11,12,34,20.90
2012,03,11,12,35,25.70
2012,03,11,12,36,35.40
2012,03,11,12,37,38.60
2012,03,11,12,38,32.20
2012,03,11,12,39,30.60
2012,03,11,12,40,25.70
2012,03,11,12,41,33.80
2012,03,11,12,42,32.20
2012,03,11,12,43,20.90
2012,03,11,12,44,29.00
2012,03,11,12,45,30.60
2012,03,11,12,46,25.70
2012,03,11,12,47,22.50
2012,03,11,12,48,19.30
2012,03,11,12,49,17.70
2012,03,11,12,50,24.20
2012,03,11,12,51,32.20
2012,03,11,12,52,20.90
2012,03,11,12,53,22.50
2012,03,11,12,54,29.00
2012,03,11,12,55,30.60
2012,03,11,12,56,24.20
2012,03,11,12,57,24.20
2012,03,11,12,58,38.60
2012,03,11,12,59,37.00
2012,03,11,13,00,30.60
2012,03,11,13,01,32.20
2012,03,11,13,02,29.00
2012,03,11,13,03,29.00
2012,03,11,13,04,25.70
2012,03,11,13,05,20.90
2012,03,11,13,06,27.40
2012,03,11,13,07,37.00
2012,03,11,13,08,30.60
2012,03,11,13,09,38.60
2012,03,11,13,10,41.80
2012,03,11,13,11,38.60
2012,03,11,13,12,30.60
2012,03,11,13,13,32.20
2012,03,11,13,14,33.80
2012,03,11,13,15,24.20
2012,03,11,13,16,25.70
2012,03,11,13,17,25.70
2012,03,11,13,18,20.90
2012,03,11,13,19,29.00
2012,03,11,13,20,29.00
2012,03,11,13,21,46.70
2012,03,11,13,22,29.00
2012,03,11,13,23,33.80
2012,03,11,13,24,27.40
2012,03,11,13,25,29.00
2012,03,11,13,26,35.40
2012,03,11,13,27,30.60
2012,03,11,13,28,30.60
2012,03,11,13,29,32.20
2012,03,11,13,30,30.60
2012,03,11,13,31,33.80
2012,03,11,13,32,29.00
2012,03,11,13,33,27.40
2012,03,11,13,34,32.20
2012,03,11,13,35,30.60
2012,03,11,13,36,32.20
2012,03,11,13,37,30.60
2012,03,11,13,38,25.70
2012,03,11,13,39,22.50
2012,03,11,13,40,35.40
2012,03,11,13,41,29.00
2012,03,11,13,42,25.70
2012,03,11,13,43,27.40
2012,03,11,13,44,24.20
2012,03,11,13,45,27.40
2012,03,11,13,46,27.40
2012,03,11,13,47,27.40
2012,03,11,13,48,29.00
2012,03,11,13,49,30.60
2012,03,11,13,50,22.50
2012,03,11,13,51,32.20
2012,03,11,13,52,25.70
2012,03,11,13,53,30.60
2012,03,11,13,54,24.20
2012,03,11,13,55,29.00
2012,03,11,13,56,30.60
2012,03,11,13,57,38.60
2012,03,11,13,58,33.80
2012,03,11,13,59,32.20
2012,03,11,14,00,32.20
2012,03,11,14,01,25.70
2012,03,11,14,02,22.50
2012,03,11,14,03,27.40
2012,03,11,14,04,24.20
2012,03,11,14,05,20.90
2012,03,11,14,06,24.20
2012,03,11,14,07,24.20
2012,03,11,14,08,22.50
2012,03,11,14,09,17.70
2012,03,11,14,10,16.10
2012,03,11,14,11,17.70
2012,03,11,14,12,24.20
2012,03,11,14,13,22.50
2012,03,11,14,14,24.20
2012,03,11,14,15,25.70
2012,03,11,14,16,27.40
2012,03,11,14,17,27.40
2012,03,11,14,18,25.70
2012,03,11,14,19,20.90
2012,03,11,14,20,29.00
2012,03,11,14,21,29.00
2012,03,11,14,22,24.20
2012,03,11,14,23,25.70
2012,03,11,14,24,24.20
2012,03,11,14,25,25.70
2012,03,11,14,26,32.20
2012,03,11,14,27,24.20
2012,03,11,14,28,22.50
2012,03,11,14,29,27.40
2012,03,11,14,30,20.90
2012,03,11,14,31,25.70
2012,03,11,14,32,40.20
2012,03,11,14,33,43.50
2012,03,11,14,34,30.60
2012,03,11,14,35,29.00
2012,03,11,14,36,32.20
2012,03,11,14,37,32.20
2012,03,11,14,38,32.20
2012,03,11,14,39,30.60
2012,03,11,14,40,33.80
2012,03,11,14,41,32.20
2012,03,11,14,42,25.70
2012,03,11,14,43,29.00
2012,03,11,14,44,30.60
2012,03,11,14,45,22.50
2012,03,11,14,46,17.70
2012,03,11,14,47,32.20
2012,03,11,14,48,25.70
2012,03,11,14,49,27.40
2012,03,11,14,50,24.20
2012,03,11,14,51,27.40
2012,03,11,14,52,24.20
2012,03,11,14,53,24.20
2012,03,11,14,54,25.70
2012,03,11,14,55,25.70
2012,03,11,14,56,33.80
2012,03,11,14,57,27.40
2012,03,11,14,58,24.20
2012,03,11,14,59,24.20
2012,03,11,15,00,33.80
2012,03,11,15,01,25.70
2012,03,11,15,02,24.20
2012,03,11,15,03,30.60
2012,03,11,15,04,37.00
2012,03,11,15,05,33.80
2012,03,11,15,06,30.60
2012,03,11,15,07,33.80
2012,03,11,15,08,33.80
2012,03,11,15,09,20.90
2012,03,11,15,10,27.40
2012,03,11,15,11,27.40
2012,03,11,15,12,32.20
2012,03,11,15,13,29.00
2012,03,11,15,14,24.20
2012,03,11,15,15,25.70
2012,03,11,15,16,29.00
2012,03,11,15,17,22.50
2012,03,11,15,18,27.40
2012,03,11,15,19,25.70
2012,03,11,15,20,24.20
2012,03,11,15,21,24.20
2012,03,11,15,22,20.90
2012,03,11,15,23,29.00
2012,03,11,15,24,25.70
2012,03,11,15,25,20.90
2012,03,11,15,26,22.50
2012,03,11,15,27,17.70
2012,03,11,15,28,11.30
2012,03,11,15,29,16.10
2012,03,11,15,30,17.70
2012,03,11,15,31,24.20
2012,03,11,15,32,20.90
2012,03,11,15,33,20.90
2012,03,11,15,34,17.70
2012,03,11,15,35,19.30
2012,03,11,15,36,29.00
2012,03,11,15,37,32.20
2012,03,11,15,38,30.60
2012,03,11,15,39,24.20
2012,03,11,15,40,24.20
2012,03,11,15,41,20.90
2012,03,11,15,42,25.70
2012,03,11,15,43,20.90
2012,03,11,15,44,24.20
2012,03,11,15,45,25.70
2012,03,11,15,46,17.70
2012,03,11,15,47,24.20
2012,03,11,15,48,22.50
2012,03,11,15,49,20.90
2012,03,11,15,50,27.40
2012,03,11,15,51,27.40
2012,03,11,15,52,22.50
2012,03,11,15,53,19.30
2012,03,11,15,54,19.30
2012,03,11,15,55,22.50
2012,03,11,15,56,25.70
2012,03,11,15,57,19.30
2012,03,11,15,58,24.20
2012,03,11,15,59,24.20
2012,03,11,16,00,20.90
2012,03,11,16,01,22.50
2012,03,11,16,02,22.50
2012,03,11,16,03,20.90
2012,03,11,16,04,22.50
2012,03,11,16,05,17.70
2012,03,11,16,06,17.70
2012,03,11,16,07,17.70
2012,03,11,16,08,19.30
2012,03,11,16,09,22.50
2012,03,11,16,10,25.70
2012,03,11,16,11,25.70
2012,03,11,16,12,24.20
2012,03,11,16,13,17.70
2012,03,11,16,14,16.10
2012,03,11,16,15,14.50
2012,03,11,16,16,16.10
2012,03,11,16,17,19.30
2012,03,11,16,18,19.30
2012,03,11,16,19,12.90
2012,03,11,16,20,14.50
2012,03,11,16,21,20.90
2012,03,11,16,22,19.30
2012,03,11,16,23,16.10
2012,03,11,16,24,17.70
2012,03,11,16,25,16.10
2012,03,11,16,26,14.50
2012,03,11,16,27,19.30
2012,03,11,16,28,17.70
2012,03,11,16,29,17.70
2012,03,11,16,30,20.90
2012,03,11,16,31,19.30
2012,03,11,16,32,20.90
2012,03,11,16,33,17.70
2012,03,11,16,34,9.60
2012,03,11,16,35,11.30
2012,03,11,16,36,16.10
2012,03,11,16,37,16.10
2012,03,11,16,38,19.30
2012,03,11,16,39,17.70
2012,03,11,16,40,19.30
2012,03,11,16,41,20.90
2012,03,11,16,42,22.50
2012,03,11,16,43,25.70
2012,03,11,16,44,24.20
2012,03,11,16,45,19.30
2012,03,11,16,46,17.70
2012,03,11,16,47,16.10
2012,03,11,16,48,14.50
2012,03,11,16,49,16.10
2012,03,11,16,50,22.50
2012,03,11,16,51,19.30
2012,03,11,16,52,24.20
2012,03,11,16,53,24.20
2012,03,11,16,54,14.50
2012,03,11,16,55,19.30
2012,03,11,16,56,20.90
2012,03,11,16,57,16.10
2012,03,11,16,58,19.30
2012,03,11,16,59,22.50
2012,03,11,17,00,19.30
2012,03,11,17,01,20.90
2012,03,11,17,02,14.50
2012,03,11,17,03,22.50
2012,03,11,17,04,19.30
2012,03,11,17,05,24.20
2012,03,11,17,06,14.50
2012,03,11,17,07,16.10
2012,03,11,17,08,16.10
2012,03,11,17,09,19.30
2012,03,11,17,10,17.70
2012,03,11,17,11,16.10
2012,03,11,17,12,24.20
2012,03,11,17,13,25.70
2012,03,11,17,14,19.30
2012,03,11,17,15,17.70
2012,03,11,17,16,25.70
2012,03,11,17,17,27.40
2012,03,11,17,18,24.20
2012,03,11,17,19,25.70
2012,03,11,17,20,22.50
2012,03,11,17,21,27.40
2012,03,11,17,22,24.20
2012,03,11,17,23,22.50
2012,03,11,17,24,20.90
2012,03,11,17,25,24.20
2012,03,11,17,26,16.10
2012,03,11,17,27,14.50
2012,03,11,17,28,14.50
2012,03,11,17,29,16.10
2012,03,11,17,30,16.10
2012,03,11,17,31,29.00
2012,03,11,17,32,16.10
2012,03,11,17,33,20.90
2012,03,11,17,34,25.70
2012,03,11,17,35,24.20
2012,03,11,17,36,25.70
2012,03,11,17,37,12.90
2012,03,11,17,38,22.50
2012,03,11,17,39,22.50
2012,03,11,17,40,11.30
2012,03,11,17,41,8.10
2012,03,11,17,42,19.30
2012,03,11,17,43,17.70
2012,03,11,17,44,14.50
2012,03,11,17,45,14.50
2012,03,11,17,46,11.30
2012,03,11,17,47,19.30
2012,03,11,17,48,16.10
2012,03,11,17,49,17.70
2012,03,11,17,50,16.10
2012,03,11,17,51,11.30
2012,03,11,17,52,11.30
2012,03,11,17,53,11.30
2012,03,11,17,54,17.70
2012,03,11,17,55,20.90
2012,03,11,17,56,16.10
2012,03,11,17,57,11.30
2012,03,11,17,58,14.50
2012,03,11,17,59,14.50
2012,03,11,18,00,11.30
2012,03,11,18,01,8.10
2012,03,11,18,02,9.60
2012,03,11,18,03,8.10
2012,03,11,18,04,9.60
2012,03,11,18,05,11.30
2012,03,11,18,06,11.30
2012,03,11,18,07,11.30
2012,03,11,18,08,17.70
2012,03,11,18,09,20.90
2012,03,11,18,10,19.30
2012,03,11,18,11,14.50
2012,03,11,18,12,11.30
2012,03,11,18,13,11.30
2012,03,11,18,14,16.10
2012,03,11,18,15,19.30
2012,03,11,18,16,17.70
2012,03,11,18,17,16.10
2012,03,11,18,18,16.10
2012,03,11,18,19,19.30
2012,03,11,18,20,20.90
2012,03,11,18,21,20.90
2012,03,11,18,22,14.50
2012,03,11,18,23,16.10
2012,03,11,18,24,11.30
2012,03,11,18,25,11.30
2012,03,11,18,26,11.30
2012,03,11,18,27,11.30
2012,03,11,18,28,16.10
2012,03,11,18,29,14.50
2012,03,11,18,30,17.70
2012,03,11,18,31,17.70
2012,03,11,18,32,14.50
2012,03,11,18,33,9.60
2012,03,11,18,34,9.60
2012,03,11,18,35,11.30
2012,03,11,18,36,14.50
2012,03,11,18,37,17.70
2012,03,11,18,38,16.10
2012,03,11,18,39,16.10
2012,03,11,18,40,16.10
2012,03,11,18,41,17.70
2012,03,11,18,42,14.50
2012,03,11,18,43,9.60
2012,03,11,18,44,11.30
2012,03,11,18,45,17.70
2012,03,11,18,46,14.50
2012,03,11,18,47,17.70
2012,03,11,18,48,20.90
2012,03,11,18,49,19.30
2012,03,11,18,50,19.30
2012,03,11,18,51,17.70
2012,03,11,18,52,19.30
2012,03,11,18,53,12.90
2012,03,11,18,54,16.10
2012,03,11,18,55,14.50
2012,03,11,18,56,14.50
2012,03,11,18,57,9.60
2012,03,11,18,58,8.10
2012,03,11,18,59,6.40
2012,03,11,19,00,14.50
2012,03,11,19,01,14.50
2012,03,11,19,02,14.50
2012,03,11,19,03,16.10
2012,03,11,19,04,14.50
2012,03,11,19,05,11.30
2012,03,11,19,06,11.30
2012,03,11,19,07,17.70
2012,03,11,19,08,8.10
2012,03,11,19,09,14.50
2012,03,11,19,10,16.10
2012,03,11,19,11,16.10